User: anonymous   Login
Location: Unspecified
(0.0000°N, 0.0000°E)
Time: 07:49:10
(UTC+00:00)
Language:

Oscar 14 - Orbit

View from above orbital plane
View from above orbital plane
View from above satellite
View from above satellite

Ground track
Ground track

The orbit data is extracted from the following two-line orbital elements,

1 20437U 90005B   19083.19214194  .00000004  00000-0  18316-4 0  9999
2 20437  98.7457  39.0640 0011760  81.8172  42.5466 14.32313077523538
Epoch (UTC): 24 March 2019 04:36:41
Eccentricity: 0.0011760
inclination: 98.7457°
perigee height: 775 km
apogee height: 792 km
right ascension of ascending node: 39.0640°
argument of perigee: 81.8172°
revolutions per day: 14.32313077
mean anomaly at epoch: 42.5466°
orbit number at epoch: 52353

The dashed part of the orbit path shows where the satellite is in the earth's shadow,  

DLR